Skip Page Navigation
NASA JPL Caltech
NASA Logo - Jet Propulsion Laboratory + View the NASA Portal
+ Center for Near-Earth Object Studies
JPL Home Earth Solar System Stars & Galaxies Technology
JPL Solar System Dynamics
BODIES ORBITS EPHEMERIDES TOOLS PHYSICAL DATA DISCOVERY FAQ SITE MAP
IMPORTANT: The SSD Announcement email list is now available. Major changes are coming in the near future, including possible hostname and/or URL changes. To be notified of such changes, subscribe to this email list.

Please visit this page for more details.


JPL Small-Body Database Browser
Search: [ help ]  
351995 (2006 UZ191)
Classification: Main-belt Asteroid          SPK-ID: 2351995
Ephemeris | Orbit Diagram | Orbital Elements | Mission Design | Physical Parameters | Discovery Circumstances | Close-Approach Data ]

[ show orbit diagram ]
Orbital Elements at Epoch 2458600.5 (2019-Apr-27.0) TDB
Reference: JPL 14 (heliocentric ecliptic J2000)
 Element Value Uncertainty (1-sigma)   Units 
e .03089331815711527 6.6011e-08  
a 3.146545143425995 7.475e-08 au
q 3.04933792321441 2.0564e-07 au
i 9.305623814341827 6.4699e-06 deg
node 256.2756677646481 4.3332e-05 deg
peri 259.6315249581606 0.00011703 deg
M 327.8897976510688 0.00011279 deg
tp 2458782.340207747593
(2019-Oct-25.84020775)
0.00064163 TDB
period 2038.681478172383
5.58
7.2647e-05
1.989e-07
d
yr
n .1765847209848246 6.2925e-09 deg/d
Q 3.24375236363758 7.7059e-08 au
  Orbit Determination Parameters
   # obs. used (total)      208  
   data-arc span      6260 days (17.14 yr)  
   first obs. used      2001-12-07  
   last obs. used      2019-01-27  
   planetary ephem.      DE431  
   SB-pert. ephem.      SB431-N16  
   condition code      0  
   norm. resid. RMS      .52756  
   source      ORB  
   producer      Otto Matic  
   solution date      2019-Jul-14 13:05:38  

Additional Information
 Earth MOID = 2.07798 au 
 Jupiter MOID = 1.84883 au 
 T_jup = 3.188 
[ show covariance matrix ]

Ephemeris | Orbit Diagram | Orbital Elements | Mission Design | Physical Parameters | Discovery Circumstances | Close-Approach Data ]

Physical Parameter Table
Parameter Symbol Value Units Sigma Reference Notes
absolute magnitude H 15.3   n/a MPO427800  

351995 (2006 UZ191)          Discovered 2006-Oct-19 by CSS at Catalina
Reference: 20130127/Numbers.arcLast Updated: 2013-01-31

[ hide close-approach data ]
Close-Approach Data   ...sorted by Date/Time (TDB)
Date/Time (TDB) Time Uncertainty
(days_HH:MM)
Body Nominal Distance (au) Minimum Distance (au) Maximum Distance (au) V-relative (km/s) V-infinity (km/s) JD (TDB) Time Uncertainty (minutes) Semi-major axis (km) Semi-minor axis (km) range-LOV angle (deg) N-sigma BP Orbit Ref. Reference Modified
1918-Mar-12 07:21 00:10 Jupiter 1.96717087829691 1.96716728814084 1.96717446851314 4.51935568783369 4.42305525470582 2421664.806241651 9.64102415840012 588.146501515049 34.0582206077226 73.7607360333038 2647309.18532853 T 14 CATAB v2.0e-lin.ifort 2019-Jul-14 13:05:40 2019-Jul-14 13:05
1928-Sep-08 23:47 00:09 Jupiter 1.84592263702389 1.8459218530152 1.84592342104484 3.42487623543729 3.28816887774898 2425498.490921562 9.37970154174893 570.961155215525 29.6391994917545 -87.3411607092085 1967566.88732214 T 14 CATAB v2.0e-lin.ifort 2019-Jul-14 13:05:40 2019-Jul-14 13:05
1939-Jan-17 10:27 00:09 Jupiter 1.90178167306664 1.90178069878328 1.90178264738221 2.79087017389464 2.62644036141211 2429280.935749074 8.75060612686252 602.625226250936 28.6507772031097 89.7805260654404 2028611.85017767 T 14 CATAB v2.0e-lin.ifort 2019-Jul-14 13:05:40 2019-Jul-14 13:05
2012-Dec-15 02:55 < 00:01 Jupiter 1.93207669993014 1.93207598947229 1.93207741038798 4.40459688721664 4.30391375902621 2456276.621382030 0.372644173697547 73.631181658646 32.6026755188035 -89.4791995059064 2468475.24155934 T 14 CATAB v2.0e-lin.ifort 2019-Jul-14 13:05:40 2019-Jul-14 13:05
2023-Jun-12 06:21 00:01 Jupiter 1.83940902437167 1.83940819724292 1.83940985150073 3.3187274826623 3.17694501941915 2460107.764325725 1.04841242933741 80.5002717667182 26.5776653769181 -68.3067797889953 2117234.76273161 T 14 CATAB v2.0e-lin.ifort 2019-Jul-14 13:05:40 2019-Jul-14 13:05
2033-Oct-17 20:28 00:02 Jupiter 1.91567895698283 1.91567805411754 1.91567985985008 2.87551813560959 2.71740671602523 2463888.352771462 2.25907988682564 164.981240222183 26.574401822368 -84.8203517447475 1949415.52622126 T 14 CATAB v2.0e-lin.ifort 2019-Jul-14 13:05:40 2019-Jul-14 13:05
2107-Sep-21 08:09 00:09 Jupiter 1.90048842943755 1.90048615704605 1.90049070190284 4.29468220930242 4.1896207196349 2490888.839628844 9.42962896908014 633.505238735766 29.2665087346564 81.075635426911 2558847.70354304 T 14 CATAB v2.0e-lin.ifort 2019-Jul-14 13:05:40 2019-Jul-14 13:05
2118-Mar-14 18:31 00:12 Jupiter 1.83648298020227 1.83648151585219 1.83648444461759 3.21193282607886 3.06497514805478 2494716.271643430 11.5715500856676 636.13666211085 27.7362347964797 -79.5516289804526 1940684.77674844 T 14 CATAB v2.0e-lin.ifort 2019-Jul-14 13:05:40 2019-Jul-14 13:05
2128-Jul-19 21:36 00:13 Jupiter 1.93071047402725 1.93070830334003 1.93071264482587 2.98037076838804 2.82934433650571 2498496.399831378 13.0785611425763 803.565881025071 28.1336901855518 -87.998410623039 1974340.82950934 T 14 CATAB v2.0e-lin.ifort 2019-Jul-14 13:05:40 2019-Jul-14 13:05

Alternate Designations
 2006 UZ191 = 2011 QV40 = 2012 XL51 
Ephemeris | Orbit Diagram | Orbital Elements | Mission Design | Physical Parameters | Discovery Circumstances | Close-Approach Data ]
ABOUT SSD CREDITS/AWARDS PRIVACY/COPYRIGHT GLOSSARY LINKS
FirstGov 2019-Dec-12 06:40 UT
(server date/time)  
NASA Home Page
Site Manager:   Ryan S. Park
Webmaster  Alan B. Chamberlin